Location: Plainartige
(45.6866°N, 1.7993°E)
Time: 14:16:59
(UTC+00:00)

ATLAS CENTAUR R/B - Pass Details

Date: 03 March 2021
Orbit: 475 x 670 km, 64.7° (Epoch: 30 March)

Event Time Altitude Azimuth Distance (km) Brightness Sun altitude
Rises 19:56:30 0° 241° (WSW) 2,519 5.3 -24.0°
Reaches altitude 10° 19:58:48 10° 252° (WSW) 1,642 4.5 -24.4°
Maximum altitude 20:02:03 30° 315° (NW) 889 2.9 -24.9°
Enters shadow 20:03:16 24° 351° (N) 1,033 2.9 -25.1°
